Temp
25 24 23 23 23 23 27 32 33 32 31 33 31 31 30 29 28 23 25 23 22 21 21 21 21 21 21 21 21 21 21 21 21 21 21 21 21 21 21 21 21 21 21 21 21 21 21 21 21
25 25 24 22 24 27 29 32 31 30 31 32 31 30 28 27 28 26 25 23 23 21 21 21 21 21 21 21 21 21 21 21 21 21 21 21 21 21 21 21 21 21 21 21 21 21 21 21 21
25 25 23 22 24 27 30 32 31 31 32 31 30 30 29 27 28 27 25 25 23 22 22 21 21 21 21 21 21 21 21 21 21 21 21 21 21 21 21 21 21 21 21 21 21 21 21 21 21
25 25 21 23 25 29 32 32 33 31 31 31 30 29 29 28 27 25 25 24 23 23 22 22 21 21 21 21 21 21 21 21 21 21 21 21 21 21 21 21 21 21 21 21 21 21 22 22 23
27 22 23 23 27 29 33 30 30 30 31 30 30 28 26 26 26 27 26 24 23 22 21 21 21 20 21 21 21 21 21 21 21 21 21 21 21 21 21 21 21 21 21 21 21 23 23 24 24
25 24 23 24 26 27 30 26 30 29 30 30 29 27 26 27 27 27 26 24 23 22 21 21 21 21 21 21 21 21 21 21 21 21 21 21 21 21 21 21 21 21 21 21 23 24 24 24 24
26 24 26 26 25 26 29 26 29 29 30 30 29 26 27 28 27 26 26 25 24 23 22 21 21 21 21 21 21 21 21 22 22 21 21 22 21 21 21 21 21 21 21 21 24 24 25 24 24
26 24 27 26 25 25 28 30 30 31 30 31 30 27 26 28 28 27 26 25 24 23 23 23 22 22 21 21 21 21 21 22 22 22 21 21 21 21 21 22 22 22 21 22 23 24 25 25 25
29 24 26 25 26 26 26 29 29 32 31 31 31 29 29 29 27 26 25 24 25 24 23 23 22 22 22 21 21 21 22 22 22 22 22 22 22 22 22 23 22 22 21 22 24 24 25 25 25
27 25 27 24 27 26 25 28 31 28 29 30 30 30 30 27 27 26 25 23 24 24 24 23 23 23 23 22 22 22 22 22 22 22 22 22 22 22 23 24 23 23 23 23 23 23 24 24 25
29 26 29 26 27 26 25 26 31 27 28 30 30 30 30 28 27 27 25 24 23 25 24 24 24 23 23 23 22 22 22 22 23 23 23 24 23 24 24 24 24 24 24 23 23 23 23 25 24
28 30 30 28 27 26 25 25 26 29 30 31 31 31 31 29 27 28 26 25 25 24 24 25 25 24 24 23 23 23 23 23 22 23 24 24 23 24 25 24 23 24 24 25 24 24 27 26 26
29 29 28 28 26 25 23 24 27 29 31 32 32 32 30 29 30 28 26 25 26 25 25 25 25 25 25 23 24 21 23 25 24 23 24 24 24 24 24 23 23 25 25 26 26 26 26 26 27
28 25 27 26 25 25 24 23 27 29 30 31 31 31 30 29 30 28 27 26 25 25 25 25 25 25 25 25 24 23 23 24 24 24 24 24 25 25 25 25 25 26 26 26 27 27 27 27 28
28 26 26 25 24 25 23 23 28 29 31 31 31 30 31 30 30 27 27 26 25 25 25 25 25 25 25 26 25 25 24 23 23 24 24 24 25 25 25 24 24 25 26 26 27 26 27 27 28
26 25 24 24 24 23 24 25 29 29 31 30 30 31 32 31 30 29 29 27 26 26 25 25 25 25 25 25 25 25 25 24 24 24 24 25 25 25 24 26 26 24 25 26 26 27 27 27 27
24 24 23 23 22 23 23 26 27 27 31 30 30 31 31 30 29 30 29 26 27 26 26 25 25 25 25 25 25 25 26 25 25 25 25 25 25 25 24 25 24 26 26 26 26 27 28 28 27
23 24 24 23 22 22 22 22 23 25 26 30 30 31 28 30 28 30 27 27 27 27 26 25 26 25 26 25 25 25 25 25 25 25 25 25 25 24 25 25 26 26 26 26 27 27 28 27 28
30 27 24 23 22 22 22 22 22 23 24 25 29 30 28 29 30 30 27 27 27 27 26 26 26 25 25 25 25 25 25 25 25 25 25 25 25 25 24 25 26 26 26 26 26 27 27 27 28
27 26 23 23 22 22 21 22 22 23 23 24 24 29 29 28 28 28 27 27 27 27 26 26 26 26 26 25 25 25 25 25 25 25 25 25 25 25 24 25 26 26 26 25 25 27 26 27 27
25 27 24 24 22 22 21 22 21 23 22 23 24 26 29 28 26 27 28 27 27 26 26 26 26 25 25 25 25 25 25 25 25 25 25 25 25 25 24 25 26 25 25 25 26 26 26 26 26
25 24 25 23 23 23 22 22 21 22 21 22 23 23 27 26 28 27 28 26 26 26 26 25 25 25 24 24 25 25 25 25 25 25 25 25 25 25 25 24 24 24 25 25 26 25 26 26 25
25 24 25 24 22 22 22 22 22 21 21 22 22 24 26 27 29 27 28 26 26 26 25 26 25 25 25 24 24 25 25 25 25 26 25 25 25 25 25 25 24 25 25 26 26 25 26 26 26
27 25 23 22 22 22 24 23 22 21 22 23 24 24 25 25 26 28 28 27 26 25 25 25 25 25 25 24 24 24 25 25 25 25 25 25 25 25 25 25 25 25 25 25 25 25 26 26 26
27 25 23 23 23 23 24 24 24 23 24 25 26 24 24 23 25 26 25 26 26 25 25 25 25 25 25 24 24 24 24 25 24 25 25 25 25 25 25 25 24 25 25 25 25 25 25 25 26
26 26 23 25 25 24 22 23 25 25 25 26 26 26 26 24 28 27 26 27 27 25 25 24 25 25 25 25 24 24 24 25 25 25 25 25 25 25 25 25 25 24 24 25 25 25 25 25 25
31 27 29 22 23 23 23 23 22 25 26 26 26 26 26 27 27 27 25 28 26 27 27 25 24 24 25 25 24 24 24 24 24 25 25 25 25 25 25 25 25 25 25 25 24 25 25 25 25
32 32 29 25 24 24 24 21 22 23 27 27 27 27 27 25 24 25 26 26 26 26 27 26 25 25 25 25 24 24 24 24 24 24 25 24 25 25 25 24 24 25 25 25 25 25 25 25 25
29 29 29 27 26 24 25 24 23 24 25 24 26 28 28 26 25 25 24 27 27 27 27 26 25 25 25 25 25 25 25 24 24 24 24 24 25 24 26 25 25 25 25 25 24 24 25 25 25
31 30 29 25 26 27 24 26 28 25 25 26 25 27 28 27 26 26 26 26 26 26 27 25 25 25 25 25 25 25 25 25 25 25 25 24 24 25 25 25 24 25 24 24 24 24 25 24 25
Height
780 782 782 783 801 798 791 766 748 763 766 753 760 767 777 774 790 826 804 810 816 821 824 825 826 828 829 830 830 830 831 832 833 834 834 834 836 836 837 838 839 840 841 842 842 843 843 845 844
779 782 783 785 807 806 790 759 771 768 762 757 765 771 780 794 782 798 808 811 814 820 824 826 828 829 830 832 832 833 834 834 836 837 837 838 838 838 838 840 841 841 842 843 844 845 845 847 847
778 782 788 796 800 800 789 762 767 764 757 762 772 769 778 793 794 797 806 811 815 820 824 826 828 830 831 833 833 834 835 837 838 839 840 841 841 842 842 842 843 843 844 844 845 847 847 849 849
777 783 790 804 801 777 766 761 758 765 765 765 769 788 783 790 795 802 809 811 815 819 823 826 829 831 832 833 834 835 836 837 839 840 841 842 842 844 845 847 847 847 847 846 846 848 849 850 850
778 778 811 811 792 774 753 758 766 772 771 775 774 796 799 796 800 803 807 812 815 820 824 827 829 831 833 834 835 837 839 839 841 842 844 845 844 845 847 849 850 849 848 848 848 849 849 850 852
784 786 810 815 794 780 767 770 770 775 772 779 787 794 802 800 802 806 810 814 817 821 826 828 830 832 834 835 837 840 842 843 844 846 848 849 850 849 848 850 851 852 851 850 849 849 851 853 854
784 795 798 797 796 787 776 767 778 773 776 785 784 801 801 800 805 808 812 817 821 824 827 829 831 833 834 837 839 840 842 843 845 846 848 850 852 852 853 851 852 852 852 851 851 851 852 854 856
775 788 792 791 798 800 777 771 767 768 781 775 783 802 808 800 803 809 815 820 823 824 827 832 832 832 835 838 841 844 845 847 848 850 852 853 854 855 854 854 853 853 853 853 853 852 853 856 858
764 798 802 796 794 790 780 779 770 766 775 779 778 789 792 798 804 811 817 821 822 825 828 832 833 834 836 839 843 844 846 848 851 854 855 854 856 856 856 856 856 857 857 856 857 856 856 857 858
776 796 791 788 783 789 783 779 773 785 788 787 785 790 793 799 804 810 814 820 821 824 829 834 835 835 837 840 843 845 847 849 850 853 855 857 858 857 859 860 860 860 860 860 861 861 860 860 859
767 788 771 778 777 784 787 785 769 788 798 783 787 788 793 800 804 806 813 817 820 825 831 834 834 836 837 841 845 845 849 852 851 851 854 858 859 862 862 863 862 862 861 862 864 860 859 858 859
778 766 768 774 779 786 793 792 793 783 782 776 778 785 792 797 804 808 814 817 821 825 831 833 835 836 840 845 847 850 850 851 852 853 856 858 861 864 864 865 865 864 862 862 862 861 857 858 859
771 771 772 772 781 788 791 793 787 780 775 776 778 787 793 796 798 806 811 817 821 824 830 833 835 838 838 844 847 850 852 850 855 856 858 860 864 862 865 863 864 864 862 863 862 860 859 859 861
765 777 777 780 787 793 798 801 792 783 778 780 782 789 794 795 799 806 811 816 822 825 830 833 836 837 837 842 846 852 851 854 856 858 859 861 865 864 865 865 863 862 862 863 863 864 863 863 863
765 784 788 790 794 799 800 809 791 777 777 783 787 790 792 794 800 806 811 815 819 826 830 833 836 840 841 844 847 851 855 856 857 858 860 863 867 866 868 870 863 863 864 864 864 865 865 864 864
781 787 806 800 797 801 802 813 787 776 778 786 788 790 791 795 799 804 810 815 820 825 830 833 836 840 844 846 849 850 853 855 857 859 863 864 865 867 868 865 864 866 866 863 862 862 862 863 863
794 810 807 808 802 803 806 803 788 782 776 787 789 789 791 796 799 805 810 816 822 825 829 835 838 841 844 848 850 852 854 857 859 860 862 863 864 865 865 863 863 863 864 862 862 862 862 864 865
812 807 805 811 810 812 816 814 799 794 793 787 788 787 793 796 800 803 811 816 821 825 830 835 837 842 843 848 851 853 855 858 860 861 863 864 864 864 863 863 862 862 863 863 863 864 861 862 864
768 782 801 808 810 817 819 819 807 799 800 798 789 787 793 796 799 803 811 817 821 826 831 835 837 842 845 848 851 852 855 857 860 862 863 863 863 863 863 861 863 864 865 862 863 863 863 862 864
776 794 806 810 807 815 821 822 818 802 805 803 800 790 790 794 799 805 810 816 822 825 831 835 838 842 846 848 850 852 855 857 859 861 863 862 863 863 863 862 864 864 864 864 864 865 865 865 865
791 786 801 802 808 816 822 825 816 805 804 802 799 795 785 792 799 805 809 814 821 825 830 835 839 842 845 847 849 850 853 857 859 861 862 862 863 863 865 864 865 866 866 866 865 867 868 868 867
791 783 793 801 807 828 820 837 821 813 813 810 808 805 789 792 795 801 806 813 817 822 826 833 838 841 845 846 848 850 852 855 858 860 860 862 862 863 865 868 868 867 867 868 868 871 868 869 867
785 789 795 797 808 822 828 834 819 815 817 810 807 802 794 791 790 799 805 810 815 820 826 829 835 839 844 847 849 850 852 855 856 858 859 861 863 863 864 865 867 868 867 869 870 870 870 872 874
768 786 804 807 809 830 811 820 823 818 799 801 797 797 792 798 795 799 802 808 814 819 825 830 832 837 842 846 848 850 852 855 855 857 859 860 861 862 863 865 865 868 870 871 872 873 871 872 874
766 790 824 829 824 828 809 818 802 793 787 783 781 792 795 795 798 798 801 806 812 817 823 828 833 834 839 844 846 849 852 854 855 857 857 857 860 861 863 865 867 868 869 872 873 874 875 874 876
773 780 816 822 823 821 815 820 801 779 773 775 782 787 790 796 794 795 796 802 810 816 820 827 830 834 836 840 843 846 849 851 854 855 854 855 856 858 861 862 865 867 869 871 873 873 875 876 876
755 781 753 807 811 818 817 814 799 775 773 780 785 787 787 786 788 792 798 799 807 811 814 823 830 833 835 839 842 844 845 848 851 852 852 854 854 854 857 860 862 864 866 868 871 873 874 874 874
739 737 775 786 825 831 820 829 824 798 783 778 780 780 781 781 784 790 797 801 806 807 811 818 826 829 832 835 840 843 846 846 847 850 851 851 853 855 857 858 859 862 864 866 869 871 872 873 874
754 763 759 766 780 812 817 813 782 778 768 778 776 773 772 777 782 785 787 795 800 802 807 813 821 827 831 832 837 841 844 846 847 848 851 852 853 855 855 856 858 860 862 864 865 867 869 871 872
733 748 756 792 792 777 795 793 750 759 756 748 758 760 765 767 773 780 783 790 794 796 802 809 816 822 827 830 833 837 842 844 846 848 850 851 852 852 854 855 857 858 858 860 863 865 868 870 872
Wind_Speed
6 2 3 4 2 2 6 9 13 20 22 17 14 15 7 6 7 8 32 33 30 26 23 20 18 18 18 17 17 17 17 18 19 20 21 23 20 22 21 22 21 21 20 20 20 19 19 20 20
5 6 3 1 1 2 2 10 19 20 17 20 23 22 23 21 20 23 23 36 29 26 22 22 19 18 18 17 17 16 16 16 18 19 20 20 21 21 22 21 20 20 20 18 18 17 18 19 20
7 4 2 2 2 2 5 14 19 17 18 21 15 13 8 21 16 11 40 30 33 25 21 19 20 18 16 17 16 16 16 16 17 18 18 18 19 19 19 19 19 18 18 18 17 16 17 19 18
3 5 5 3 4 5 14 13 16 19 20 21 22 14 18 23 12 29 36 38 32 25 22 19 18 17 17 16 16 16 15 16 18 18 19 18 19 18 16 15 16 17 16 16 16 15 16 18 17
10 4 4 4 4 5 11 13 17 17 16 20 24 20 14 23 39 41 34 28 28 25 23 20 19 17 16 16 15 15 15 16 18 17 17 18 18 17 17 16 15 15 16 14 14 15 17 19 19
1 3 5 6 3 5 10 21 10 16 20 18 22 22 15 32 32 30 30 26 28 25 22 20 19 17 16 16 16 15 15 16 17 16 15 16 16 17 18 17 16 15 13 13 15 17 18 18 18
3 2 2 1 5 6 3 20 9 19 20 17 18 23 12 17 31 31 31 30 25 23 21 21 20 17 16 17 17 18 17 18 18 17 16 17 18 17 18 18 16 14 13 13 16 17 18 17 17
4 2 1 2 3 1 6 8 10 18 20 22 20 14 11 16 37 33 32 30 27 23 24 17 18 18 18 16 16 17 17 16 16 15 15 15 15 16 16 16 15 14 13 13 15 18 19 18 16
2 2 3 1 4 3 5 5 10 6 20 14 10 18 22 26 36 32 32 30 22 26 20 17 18 18 14 17 17 18 17 17 16 13 12 14 16 16 12 12 12 10 9 10 12 15 16 15 13
3 2 1 15 8 3 6 5 11 8 9 14 16 26 32 40 35 28 25 23 30 23 20 18 19 16 16 16 19 19 19 18 14 14 13 11 13 11 12 10 10 9 8 8 8 8 7 5 6
5 3 4 3 11 5 2 4 7 21 10 18 22 19 24 26 22 25 23 27 31 25 21 22 18 20 18 21 21 21 18 16 15 11 13 14 13 10 11 11 9 6 4 2 4 5 5 5 10
3 6 5 10 6 8 3 2 10 11 15 18 19 14 18 12 21 22 27 24 24 26 27 24 18 22 14 17 12 19 19 12 15 17 15 11 13 11 11 8 2 1 2 3 5 10 12 5 6
6 8 5 9 4 9 8 10 8 5 23 17 19 17 14 10 13 28 30 30 28 27 30 22 18 11 15 20 18 20 20 20 19 18 18 12 11 10 10 7 4 8 3 4 6 7 6 2 7
7 7 11 7 5 11 12 7 12 3 19 15 14 16 11 10 19 25 29 28 24 28 26 22 18 11 17 16 22 21 19 16 20 17 12 11 11 14 13 12 5 4 6 3 7 6 4 5 7
13 13 9 5 4 7 15 11 4 3 15 18 13 12 13 8 30 29 29 27 32 30 26 24 21 20 20 18 17 21 21 15 18 15 12 9 10 10 11 4 10 2 2 2 2 6 8 7 7
6 7 5 4 2 4 3 5 3 14 18 16 16 13 13 14 19 27 28 28 37 30 24 24 18 16 17 16 15 11 11 22 18 15 12 12 10 9 7 4 8 4 6 11 11 11 5 11 11
3 3 10 1 8 5 5 2 6 8 14 14 14 12 12 12 14 24 24 37 31 26 25 21 20 19 18 15 14 15 18 16 15 14 7 9 9 4 2 8 3 3 6 5 10 4 12 4 11
14 6 6 6 4 3 2 8 14 9 10 9 12 13 10 12 8 24 31 34 27 22 22 21 20 19 15 16 12 17 15 13 12 14 10 9 5 4 9 7 6 4 6 7 10 8 12 9 4
4 11 14 9 6 2 6 2 13 10 9 8 5 12 13 12 13 24 30 31 27 23 28 27 23 21 19 13 14 14 12 12 13 11 11 8 8 4 6 5 7 5 6 9 9 11 14 12 6
10 15 7 7 13 1 4 5 9 14 5 4 8 6 17 13 9 26 30 28 28 24 26 27 23 20 16 13 11 11 15 17 15 13 11 8 7 6 3 2 4 13 4 5 5 10 13 4 5
3 2 9 9 10 4 5 4 6 4 5 8 9 12 14 14 9 18 25 28 28 30 28 28 22 19 13 10 13 14 11 14 14 13 10 9 7 6 5 1 2 4 1 4 4 8 9 10 8
5 12 9 20 8 1 5 2 4 6 8 6 9 12 7 9 9 9 23 28 31 30 32 26 21 17 13 9 14 20 19 15 14 14 13 10 5 7 3 5 2 5 5 2 3 5 9 10 10
7 13 11 14 9 4 7 2 4 4 9 13 13 11 4 9 15 9 20 30 31 33 31 30 23 21 16 12 9 14 17 13 9 10 16 13 9 6 4 6 1 3 4 3 4 6 8 10 5
24 17 5 5 1 1 8 6 4 12 27 23 20 11 4 7 8 13 15 30 28 31 31 29 28 24 19 18 14 12 12 10 10 16 17 13 14 12 10 9 4 4 2 2 3 1 5 8 7
15 6 1 1 2 1 9 8 7 23 21 26 22 14 10 8 11 11 10 17 26 29 29 32 28 26 22 17 15 14 10 11 10 12 9 9 11 13 15 13 10 8 6 5 2 1 2 4 5
14 9 6 3 1 2 3 2 5 10 18 19 18 16 13 20 16 12 13 12 20 29 29 27 31 27 25 20 16 14 12 13 12 11 10 12 8 14 16 16 13 11 7 6 4 5 0 5 3
4 6 8 7 2 3 1 2 11 14 13 19 20 19 18 16 12 14 13 24 20 33 31 29 30 29 27 23 19 17 14 12 10 12 10 11 5 11 19 15 10 11 10 6 5 5 5 3 3
3 5 2 3 5 3 5 7 5 9 7 15 23 19 16 6 9 13 16 25 27 27 29 30 32 33 29 23 21 18 16 14 10 9 10 12 10 15 17 16 14 9 9 9 8 7 4 5 6
3 4 4 4 5 4 4 4 12 18 16 10 12 19 20 13 12 11 14 19 30 30 34 32 34 32 30 26 25 22 17 15 13 10 9 10 9 15 13 14 11 12 10 10 8 8 6 6 6
7 5 6 3 8 2 4 4 12 17 15 15 9 17 19 18 16 16 20 24 25 27 26 33 33 32 32 28 26 23 19 18 17 15 12 12 10 8 10 12 8 10 8 9 8 9 7 5 8
Wind_Direction
263 250 353 264 342 105 313 92 83 83 78 95 102 122 112 170 97 131 122 130 129 131 131 128 121 121 116 113 111 111 110 109 108 104 106 104 104 102 103 101 100 100 100 97 94 93 97 97 93
248 258 177 39 81 170 198 77 87 90 89 94 88 91 82 83 98 118 119 133 130 128 133 125 125 124 123 117 118 113 110 110 108 107 109 107 106 104 104 101 102 100 101 101 98 97 103 103 96
241 220 75 8 299 246 115 99 94 96 96 104 94 76 82 113 112 121 136 132 129 134 133 130 129 121 120 121 119 114 112 115 114 111 112 109 109 108 108 107 102 98 101 99 100 98 106 105 104
237 95 6 301 261 283 111 117 117 102 98 103 114 85 97 115 92 112 119 127 129 128 128 126 124 124 119 121 119 118 119 120 119 121 119 117 113 109 108 106 103 102 103 99 98 105 115 114 107
242 78 89 298 268 307 116 92 57 94 99 93 100 108 92 99 121 124 125 129 123 123 123 124 122 124 122 122 123 119 117 119 122 121 118 120 117 113 111 109 105 106 103 105 106 109 116 113 104
123 142 154 229 237 314 75 68 132 99 106 103 105 109 114 130 129 139 125 121 120 127 121 119 118 118 119 122 124 119 113 117 121 120 120 118 113 111 115 116 109 108 110 108 107 107 117 125 112
141 36 263 76 349 8 42 126 192 125 118 119 123 119 134 135 135 136 135 129 130 125 118 120 119 120 121 124 125 123 121 123 131 129 127 125 123 114 113 119 117 119 118 113 109 110 119 131 121
160 107 133 125 213 243 23 131 82 136 125 124 133 139 139 140 129 125 124 124 126 123 120 119 121 126 126 126 125 123 124 121 127 132 131 127 123 121 120 121 123 124 126 121 117 117 114 120 122
183 16 149 107 203 180 322 90 144 97 128 143 141 132 145 126 118 111 117 119 127 131 130 133 125 129 130 130 127 128 124 118 111 122 132 132 126 126 125 122 120 121 121 116 110 120 124 123 120
143 122 350 182 219 51 336 339 130 101 80 136 140 140 134 126 131 140 132 125 128 133 131 141 141 141 128 133 130 128 129 127 130 138 142 143 135 136 133 125 114 111 115 126 121 106 125 146 151
178 176 121 149 153 215 150 320 280 109 169 152 135 147 135 144 147 139 135 141 145 138 139 147 148 152 143 135 136 140 134 134 137 157 156 133 142 138 140 134 124 127 148 188 155 142 230 217 239
187 121 117 127 163 159 135 57 260 236 160 140 133 143 133 140 149 147 142 137 140 148 142 144 148 161 164 133 135 137 129 140 148 144 157 156 156 158 143 139 166 248 95 144 150 156 80 94 204
80 83 88 110 110 116 130 262 227 359 142 134 140 132 136 157 176 138 133 143 147 129 148 148 149 156 156 164 150 132 109 120 145 151 157 151 163 192 175 152 129 189 179 96 136 162 195 248 72
133 124 117 72 133 96 95 313 264 153 125 146 144 139 154 175 131 135 139 147 145 135 142 147 136 92 165 155 146 143 136 135 135 141 125 135 134 140 151 136 150 130 130 98 145 137 182 149 118
134 127 109 67 29 93 99 264 107 158 159 143 137 157 168 178 133 146 149 151 139 143 146 152 131 129 135 140 150 140 153 147 152 117 114 148 120 110 139 155 226 199 101 323 239 252 273 187 143
149 121 132 15 46 31 324 203 153 194 148 148 152 179 168 132 128 128 142 128 141 144 149 142 138 144 137 131 136 159 146 148 140 134 131 151 170 154 76 128 161 107 57 321 311 297 287 217 164
13 251 108 29 17 28 349 147 344 357 153 156 164 183 144 138 130 140 135 133 142 144 143 150 148 148 148 143 145 148 145 153 155 140 149 170 180 113 11 179 142 188 20 41 15 27 55 203 220
231 153 141 132 147 9 29 335 320 -0 351 173 179 161 137 142 146 145 129 137 141 142 148 161 147 147 159 150 153 149 149 151 146 163 132 132 142 108 99 130 126 109 55 73 9 24 30 3 94
163 120 123 118 143 133 166 279 316 314 336 332 275 159 137 143 150 142 131 138 144 138 157 153 148 149 153 159 146 155 151 158 150 152 134 144 130 159 92 71 114 148 81 53 11 28 21 21 28
329 127 86 98 133 97 157 265 284 284 298 342 321 209 152 157 157 132 137 142 153 153 158 150 153 161 158 158 148 157 142 151 154 151 158 145 151 126 88 63 119 137 123 16 7 22 2 17 37
240 322 169 147 132 70 118 291 306 230 313 321 330 299 147 153 141 148 146 150 157 147 155 160 161 168 163 167 168 157 146 160 156 161 162 160 157 145 114 98 99 142 56 333 29 351 35 19 43
95 54 186 130 126 120 197 285 278 230 270 288 282 291 175 158 158 153 158 155 163 160 158 165 172 174 158 182 166 144 156 160 182 178 181 183 180 172 148 167 129 211 235 42 41 40 43 49 46
133 120 163 146 111 134 193 204 240 263 256 253 247 257 253 173 165 196 163 164 165 167 170 169 171 179 181 182 191 197 172 176 191 180 184 175 190 209 192 181 217 192 184 161 81 16 39 32 107
117 130 112 58 51 110 195 208 197 198 207 218 228 237 229 245 198 200 143 165 167 170 173 176 174 177 176 178 179 180 188 180 167 164 163 187 193 186 187 194 192 213 234 162 330 31 25 23 67
107 140 313 227 190 354 338 194 255 203 216 216 211 199 193 236 218 196 161 145 169 170 173 180 181 176 178 183 179 191 201 183 150 169 174 195 204 212 189 186 185 188 198 227 273 48 115 352 1
160 168 159 264 171 121 320 251 259 292 208 199 216 210 192 205 209 188 187 156 183 161 168 176 181 182 180 184 190 191 192 165 167 188 184 204 184 219 212 187 188 193 201 211 257 272 231 5 248
209 220 215 99 71 96 124 344 300 20 175 197 207 216 207 194 183 168 180 194 187 166 172 179 183 186 181 180 189 188 190 185 183 191 215 179 186 209 193 193 194 181 192 188 227 284 262 274 297
182 272 56 36 142 200 133 146 264 304 202 186 200 207 209 147 158 162 167 188 198 179 173 180 190 185 186 178 192 195 195 203 199 196 190 182 181 186 190 189 192 195 194 197 212 240 268 259 275
284 293 302 146 138 144 162 178 206 222 190 190 214 214 200 182 188 172 163 200 198 184 175 181 184 183 184 182 188 198 207 205 201 199 198 203 218 210 211 184 205 196 183 196 218 226 241 227 235
216 225 210 132 289 154 133 239 185 199 202 174 205 204 203 187 190 175 172 189 199 185 173 177 175 180 185 187 191 197 200 201 202 208 204 210 222 212 200 189 199 199 205 204 214 232 238 232 248